Time,TemperatureF,DewpointF,PressureIn,WindDirection,WindDirectionDegrees,WindSpeedMPH,WindSpeedGustMPH,Humidity,HourlyPrecipIn,Conditions,Clouds,dailyrainin,SoftwareType,DateUTC
2013-07-18 00:05:00,76.4,70.0,30.15,South,180,0.0,0.0,80,0.00,,,0.00,weatherlink.com 1.10,2013-07-18 05:05:00,
2013-07-18 00:20:00,75.7,70.0,30.16,South,180,0.0,0.0,82,0.00,,,0.00,weatherlink.com 1.10,2013-07-18 05:20:00,
2013-07-18 00:35:00,76.2,71.0,30.16,SSE,155,1.0,2.0,83,0.00,,,0.00,weatherlink.com 1.10,2013-07-18 05:35:00,
2013-07-18 00:50:00,78.1,71.0,30.16,SSW,196,0.0,4.0,79,0.00,,,0.00,weatherlink.com 1.10,2013-07-18 05:50:00,
2013-07-18 01:05:00,78.3,71.0,30.16,South,187,1.0,2.0,78,0.00,,,0.00,weatherlink.com 1.10,2013-07-18 06:05:00,
2013-07-18 01:20:00,78.1,71.0,30.16,SSE,163,0.0,1.0,79,0.00,,,0.00,weatherlink.com 1.10,2013-07-18 06:20:00,
2013-07-18 01:35:00,77.8,71.0,30.15,SSE,163,0.0,1.0,79,0.00,,,0.00,weatherlink.com 1.10,2013-07-18 06:35:00,
2013-07-18 01:50:00,77.5,71.0,30.15,SSE,149,0.0,2.0,80,0.00,,,0.00,weatherlink.com 1.10,2013-07-18 06:50:00,
2013-07-18 02:05:00,77.3,71.0,30.15,SSE,149,0.0,1.0,80,0.00,,,0.00,weatherlink.com 1.10,2013-07-18 07:05:00,
2013-07-18 02:20:00,77.3,70.0,30.14,SSE,149,0.0,0.0,79,0.00,,,0.00,weatherlink.com 1.10,2013-07-18 07:20:00,
2013-07-18 02:35:00,77.2,71.0,30.14,SSE,149,0.0,1.0,80,0.00,,,0.00,weatherlink.com 1.10,2013-07-18 07:35:00,
2013-07-18 02:50:00,77.0,70.0,30.14,SE,135,1.0,2.0,80,0.00,,,0.00,weatherlink.com 1.10,2013-07-18 07:50:00,
2013-07-18 03:05:00,76.7,71.0,30.14,South,178,0.0,2.0,81,0.00,,,0.00,weatherlink.com 1.10,2013-07-18 08:05:00,
2013-07-18 03:20:00,76.7,71.0,30.14,South,178,0.0,1.0,81,0.00,,,0.00,weatherlink.com 1.10,2013-07-18 08:20:00,
2013-07-18 03:35:00,76.4,71.0,30.14,South,178,0.0,0.0,82,0.00,,,0.00,weatherlink.com 1.10,2013-07-18 08:35:00,
2013-07-18 03:50:00,76.0,70.0,30.14,SSE,157,1.0,1.0,82,0.00,,,0.00,weatherlink.com 1.10,2013-07-18 08:50:00,
2013-07-18 04:05:00,75.8,70.0,30.14,SSE,165,0.0,2.0,83,0.00,,,0.00,weatherlink.com 1.10,2013-07-18 09:05:00,
2013-07-18 04:20:00,75.4,70.0,30.13,SSE,165,0.0,0.0,83,0.00,,,0.00,weatherlink.com 1.10,2013-07-18 09:20:00,
2013-07-18 04:35:00,74.7,70.0,30.13,SSE,165,0.0,0.0,85,0.00,,,0.00,weatherlink.com 1.10,2013-07-18 09:35:00,
2013-07-18 04:50:00,74.9,70.0,30.12,SSE,165,0.0,1.0,85,0.00,,,0.00,weatherlink.com 1.10,2013-07-18 09:50:00,
2013-07-18 05:06:00,74.7,70.0,30.12,South,182,0.0,1.0,85,0.00,,,0.00,weatherlink.com 1.10,2013-07-18 10:06:00,
2013-07-18 05:21:00,74.4,70.0,30.12,South,182,0.0,0.0,85,0.00,,,0.00,weatherlink.com 1.10,2013-07-18 10:21:00,
2013-07-18 05:36:00,74.2,70.0,30.12,South,182,0.0,0.0,86,0.00,,,0.00,weatherlink.com 1.10,2013-07-18 10:36:00,
2013-07-18 05:51:00,74.1,70.0,30.11,South,182,0.0,1.0,86,0.00,,,0.00,weatherlink.com 1.10,2013-07-18 10:51:00,
2013-07-18 06:06:00,73.7,69.0,30.11,South,182,0.0,0.0,86,0.00,,,0.00,weatherlink.com 1.10,2013-07-18 11:06:00,
2013-07-18 06:21:00,74.1,69.0,30.11,South,182,2.0,2.0,85,0.00,,,0.00,weatherlink.com 1.10,2013-07-18 11:21:00,
2013-07-18 06:36:00,75.1,70.0,30.11,SSW,192,2.0,3.0,83,0.00,,,0.00,weatherlink.com 1.10,2013-07-18 11:36:00,
2013-07-18 06:51:00,75.8,70.0,30.11,South,182,0.0,2.0,82,0.00,,,0.00,weatherlink.com 1.10,2013-07-18 11:51:00,
2013-07-18 07:06:00,76.6,70.0,30.11,South,186,2.0,4.0,80,0.00,,,0.00,weatherlink.com 1.10,2013-07-18 12:06:00,
2013-07-18 07:21:00,77.4,70.0,30.10,SSW,198,1.0,5.0,79,0.00,,,0.00,weatherlink.com 1.10,2013-07-18 12:21:00,
2013-07-18 07:36:00,78.3,71.0,30.10,SSW,213,1.0,3.0,78,0.00,,,0.00,weatherlink.com 1.10,2013-07-18 12:36:00,
2013-07-18 07:51:00,79.1,71.0,30.10,SSW,197,4.0,4.0,76,0.00,,,0.00,weatherlink.com 1.10,2013-07-18 12:51:00,
2013-07-18 08:06:00,79.9,71.0,30.10,SSW,205,1.0,6.0,75,0.00,,,0.00,weatherlink.com 1.10,2013-07-18 13:06:00,
2013-07-18 08:21:00,80.7,72.0,30.10,SW,225,2.0,7.0,74,0.00,,,0.00,weatherlink.com 1.10,2013-07-18 13:21:00,
2013-07-18 08:36:00,81.9,72.0,30.10,SSW,204,5.0,7.0,71,0.00,,,0.00,weatherlink.com 1.10,2013-07-18 13:36:00,
2013-07-18 08:51:00,82.9,72.0,30.09,SSW,195,3.0,7.0,69,0.00,,,0.00,weatherlink.com 1.10,2013-07-18 13:51:00,
2013-07-18 09:06:00,83.8,72.0,30.09,SSW,204,5.0,8.0,67,0.00,,,0.00,weatherlink.com 1.10,2013-07-18 14:06:00,
2013-07-18 09:21:00,85.2,72.0,30.09,SW,226,1.0,8.0,64,0.00,,,0.00,weatherlink.com 1.10,2013-07-18 14:21:00,
2013-07-18 09:36:00,86.0,72.0,30.09,SW,220,6.0,10.0,63,0.00,,,0.00,weatherlink.com 1.10,2013-07-18 14:36:00,
2013-07-18 09:51:00,86.9,72.0,30.09,SSW,192,4.0,7.0,62,0.00,,,0.00,weatherlink.com 1.10,2013-07-18 14:51:00,
2013-07-18 10:06:00,88.2,72.0,30.09,NW,309,6.0,8.0,59,0.00,,,0.00,weatherlink.com 1.10,2013-07-18 15:06:00,
2013-07-18 10:21:00,88.5,72.0,30.08,SW,229,8.0,11.0,58,0.00,,,0.00,weatherlink.com 1.10,2013-07-18 15:21:00,
2013-07-18 10:36:00,89.3,73.0,30.08,SW,234,5.0,9.0,58,0.00,,,0.00,weatherlink.com 1.10,2013-07-18 15:36:00,
2013-07-18 10:51:00,90.2,73.0,30.07,WSW,240,3.0,8.0,57,0.00,,,0.00,weatherlink.com 1.10,2013-07-18 15:51:00,
2013-07-18 11:06:00,90.7,72.0,30.07,WSW,238,9.0,9.0,55,0.00,,,0.00,weatherlink.com 1.10,2013-07-18 16:06:00,
2013-07-18 11:21:00,91.0,72.0,30.06,WSW,246,2.0,11.0,53,0.00,,,0.00,weatherlink.com 1.10,2013-07-18 16:21:00,
2013-07-18 11:37:00,91.6,71.0,30.06,West,261,2.0,9.0,51,0.00,,,0.00,weatherlink.com 1.10,2013-07-18 16:37:00,
2013-07-18 11:52:00,92.2,71.0,30.06,WSW,242,6.0,11.0,50,0.00,,,0.00,weatherlink.com 1.10,2013-07-18 16:52:00,
2013-07-18 12:07:00,92.5,70.0,30.05,WSW,248,9.0,13.0,48,0.00,,,0.00,weatherlink.com 1.10,2013-07-18 17:07:00,
2013-07-18 12:22:00,92.7,70.0,30.05,SW,224,8.0,11.0,47,0.00,,,0.00,weatherlink.com 1.10,2013-07-18 17:22:00,
2013-07-18 12:37:00,92.8,70.0,30.05,SSW,213,5.0,11.0,48,0.00,,,0.00,weatherlink.com 1.10,2013-07-18 17:37:00,
2013-07-18 12:52:00,92.6,71.0,30.04,SSW,194,7.0,10.0,49,0.00,,,0.00,weatherlink.com 1.10,2013-07-18 17:52:00,
2013-07-18 13:07:00,92.5,70.0,30.03,SW,215,7.0,13.0,48,0.00,,,0.00,weatherlink.com 1.10,2013-07-18 18:07:00,
2013-07-18 13:22:00,93.5,70.0,30.03,SW,221,6.0,11.0,47,0.00,,,0.00,weatherlink.com 1.10,2013-07-18 18:22:00,
2013-07-18 13:37:00,93.5,69.0,30.02,SW,227,5.0,11.0,45,0.00,,,0.00,weatherlink.com 1.10,2013-07-18 18:37:00,
2013-07-18 13:52:00,93.6,69.0,30.02,SSE,159,8.0,18.0,44,0.00,,,0.00,weatherlink.com 1.10,2013-07-18 18:52:00,
2013-07-18 14:07:00,93.9,69.0,30.02,SSW,205,9.0,12.0,44,0.00,,,0.00,weatherlink.com 1.10,2013-07-18 19:07:00,
2013-07-18 14:22:00,94.0,70.0,30.01,SSE,154,5.0,14.0,46,0.00,,,0.00,weatherlink.com 1.10,2013-07-18 19:22:00,
2013-07-18 14:37:00,93.5,69.0,30.00,South,184,5.0,13.0,45,0.00,,,0.00,weatherlink.com 1.10,2013-07-18 19:37:00,
2013-07-18 14:52:00,94.4,69.0,30.00,SW,221,4.0,14.0,44,0.00,,,0.00,weatherlink.com 1.10,2013-07-18 19:52:00,
2013-07-18 15:07:00,93.9,68.0,29.99,SSW,211,6.0,16.0,43,0.00,,,0.00,weatherlink.com 1.10,2013-07-18 20:07:00,
2013-07-18 15:22:00,94.1,68.0,29.98,SSW,201,8.0,16.0,43,0.00,,,0.00,weatherlink.com 1.10,2013-07-18 20:22:00,
2013-07-18 15:37:00,94.5,68.0,29.98,South,174,7.0,13.0,42,0.00,,,0.00,weatherlink.com 1.10,2013-07-18 20:37:00,
2013-07-18 15:52:00,94.9,69.0,29.98,SW,217,6.0,15.0,43,0.00,,,0.00,weatherlink.com 1.10,2013-07-18 20:52:00,
2013-07-18 16:07:00,95.1,69.0,29.97,South,172,6.0,12.0,43,0.00,,,0.00,weatherlink.com 1.10,2013-07-18 21:07:00,
2013-07-18 16:22:00,94.5,69.0,29.97,West,277,7.0,14.0,43,0.00,,,0.00,weatherlink.com 1.10,2013-07-18 21:22:00,
2013-07-18 16:37:00,94.6,69.0,29.96,SW,232,5.0,12.0,43,0.00,,,0.00,weatherlink.com 1.10,2013-07-18 21:37:00,
2013-07-18 16:52:00,94.2,69.0,29.95,SW,229,7.0,10.0,44,0.00,,,0.00,weatherlink.com 1.10,2013-07-18 21:52:00,
2013-07-18 17:07:00,94.8,71.0,29.95,WSW,240,3.0,11.0,46,0.00,,,0.00,weatherlink.com 1.10,2013-07-18 22:07:00,
2013-07-18 17:22:00,94.5,69.0,29.95,SW,215,10.0,10.0,43,0.00,,,0.00,weatherlink.com 1.10,2013-07-18 22:22:00,
2013-07-18 17:37:00,93.8,69.0,29.94,South,188,6.0,12.0,45,0.00,,,0.00,weatherlink.com 1.10,2013-07-18 22:37:00,
2013-07-18 17:52:00,93.2,69.0,29.94,SW,233,12.0,17.0,45,0.00,,,0.00,weatherlink.com 1.10,2013-07-18 22:52:00,
2013-07-18 18:07:00,92.9,69.0,29.93,SW,221,5.0,15.0,45,0.00,,,0.00,weatherlink.com 1.10,2013-07-18 23:07:00,
2013-07-18 18:22:00,92.6,68.0,29.92,SW,226,6.0,14.0,45,0.00,,,0.00,weatherlink.com 1.10,2013-07-18 23:22:00,
2013-07-18 18:37:00,92.4,69.0,29.92,SSW,209,7.0,14.0,47,0.00,,,0.00,weatherlink.com 1.10,2013-07-18 23:37:00,
2013-07-18 18:52:00,91.9,69.0,29.92,SW,222,10.0,12.0,47,0.00,,,0.00,weatherlink.com 1.10,2013-07-18 23:52:00,
2013-07-18 19:07:00,91.5,69.0,29.92,SSW,207,8.0,10.0,47,0.00,,,0.00,weatherlink.com 1.10,2013-07-19 00:07:00,
2013-07-18 19:22:00,91.1,69.0,29.92,SSW,203,5.0,11.0,49,0.00,,,0.00,weatherlink.com 1.10,2013-07-19 00:22:00,
2013-07-18 19:37:00,90.5,69.0,29.92,SW,214,4.0,9.0,50,0.00,,,0.00,weatherlink.com 1.10,2013-07-19 00:37:00,
2013-07-18 19:52:00,89.6,70.0,29.92,SW,230,5.0,6.0,52,0.00,,,0.00,weatherlink.com 1.10,2013-07-19 00:52:00,
2013-07-18 20:07:00,88.7,70.0,29.92,South,175,1.0,6.0,54,0.00,,,0.00,weatherlink.com 1.10,2013-07-19 01:07:00,
2013-07-18 20:22:00,87.6,69.0,29.91,South,181,3.0,6.0,55,0.00,,,0.00,weatherlink.com 1.10,2013-07-19 01:22:00,
2013-07-18 20:37:00,86.5,69.0,29.91,South,181,3.0,3.0,57,0.00,,,0.00,weatherlink.com 1.10,2013-07-19 01:37:00,
2013-07-18 20:52:00,85.5,70.0,29.91,SSW,211,3.0,5.0,60,0.00,,,0.00,weatherlink.com 1.10,2013-07-19 01:52:00,
2013-07-18 21:07:00,84.5,70.0,29.90,SSW,202,1.0,4.0,61,0.00,,,0.00,weatherlink.com 1.10,2013-07-19 02:07:00,
2013-07-18 21:23:00,83.8,69.0,29.90,SSE,165,1.0,4.0,62,0.00,,,0.00,weatherlink.com 1.10,2013-07-19 02:23:00,
2013-07-18 21:38:00,83.3,69.0,29.91,South,186,2.0,4.0,63,0.00,,,0.00,weatherlink.com 1.10,2013-07-19 02:38:00,
2013-07-18 21:53:00,83.0,70.0,29.91,SSW,195,4.0,4.0,64,0.00,,,0.00,weatherlink.com 1.10,2013-07-19 02:53:00,
2013-07-18 22:08:00,82.5,69.0,29.91,SSW,193,0.0,3.0,64,0.00,,,0.00,weatherlink.com 1.10,2013-07-19 03:08:00,
2013-07-18 22:23:00,82.2,69.0,29.91,South,175,2.0,3.0,65,0.00,,,0.00,weatherlink.com 1.10,2013-07-19 03:23:00,
2013-07-18 22:38:00,81.8,69.0,29.91,SSW,194,1.0,6.0,66,0.00,,,0.00,weatherlink.com 1.10,2013-07-19 03:38:00,
2013-07-18 22:53:00,81.4,69.0,29.91,SSW,194,0.0,4.0,66,0.00,,,0.00,weatherlink.com 1.10,2013-07-19 03:53:00,
2013-07-18 23:08:00,81.1,69.0,29.91,South,182,3.0,4.0,67,0.00,,,0.00,weatherlink.com 1.10,2013-07-19 04:08:00,
2013-07-18 23:23:00,81.1,69.0,29.90,SSE,148,4.0,6.0,67,0.00,,,0.00,weatherlink.com 1.10,2013-07-19 04:23:00,
2013-07-18 23:38:00,81.1,69.0,29.90,SW,215,4.0,7.0,67,0.00,,,0.00,weatherlink.com 1.10,2013-07-19 04:38:00,
2013-07-18 23:53:00,80.9,69.0,29.90,SSE,159,4.0,7.0,67,0.00,,,0.00,weatherlink.com 1.10,2013-07-19 04:53:00,